Year,Month,Day,Hour,Minute,Value (Times are PST for temperature in C)
2014,02,28,00,00,2.60
2014,02,28,00,01,2.60
2014,02,28,00,02,2.60
2014,02,28,00,03,2.60
2014,02,28,00,04,2.60
2014,02,28,00,05,2.60
2014,02,28,00,06,2.60
2014,02,28,00,07,2.60
2014,02,28,00,08,2.60
2014,02,28,00,09,2.50
2014,02,28,00,10,2.50
2014,02,28,00,11,2.50
2014,02,28,00,12,2.50
2014,02,28,00,13,2.50
2014,02,28,00,14,2.50
2014,02,28,00,15,2.50
2014,02,28,00,16,2.50
2014,02,28,00,17,2.50
2014,02,28,00,18,2.50
2014,02,28,00,19,2.50
2014,02,28,00,20,2.50
2014,02,28,00,21,2.50
2014,02,28,00,22,2.50
2014,02,28,00,23,2.50
2014,02,28,00,24,2.50
2014,02,28,00,25,2.50
2014,02,28,00,26,2.40
2014,02,28,00,27,2.40
2014,02,28,00,28,2.40
2014,02,28,00,29,2.40
2014,02,28,00,30,2.50
2014,02,28,00,31,2.50
2014,02,28,00,32,2.50
2014,02,28,00,33,2.50
2014,02,28,00,34,2.50
2014,02,28,00,35,2.50
2014,02,28,00,36,2.40
2014,02,28,00,37,2.50
2014,02,28,00,38,2.50
2014,02,28,00,39,2.50
2014,02,28,00,40,2.50
2014,02,28,00,41,2.50
2014,02,28,00,42,2.50
2014,02,28,00,43,2.50
2014,02,28,00,44,2.50
2014,02,28,00,45,2.60
2014,02,28,00,46,2.60
2014,02,28,00,47,2.50
2014,02,28,00,48,2.50
2014,02,28,00,49,2.50
2014,02,28,00,50,2.50
2014,02,28,00,51,2.50
2014,02,28,00,52,2.50
2014,02,28,00,53,2.50
2014,02,28,00,54,2.50
2014,02,28,00,55,2.50
2014,02,28,00,56,2.40
2014,02,28,00,57,2.40
2014,02,28,00,58,2.40
2014,02,28,00,59,2.40
2014,02,28,01,00,2.40
2014,02,28,01,01,2.40
2014,02,28,01,02,2.40
2014,02,28,01,03,2.40
2014,02,28,01,04,2.40
2014,02,28,01,05,2.40
2014,02,28,01,06,2.40
2014,02,28,01,07,2.40
2014,02,28,01,08,2.40
2014,02,28,01,09,2.40
2014,02,28,01,10,2.40
2014,02,28,01,11,2.40
2014,02,28,01,12,2.40
2014,02,28,01,13,2.40
2014,02,28,01,14,2.40
2014,02,28,01,15,2.40
2014,02,28,01,16,2.40
2014,02,28,01,17,2.40
2014,02,28,01,18,2.40
2014,02,28,01,19,2.30
2014,02,28,01,20,2.30
2014,02,28,01,21,2.30
2014,02,28,01,22,2.30
2014,02,28,01,23,2.30
2014,02,28,01,24,2.30
2014,02,28,01,25,2.20
2014,02,28,01,26,2.20
2014,02,28,01,27,2.20
2014,02,28,01,28,2.20
2014,02,28,01,29,2.20
2014,02,28,01,30,2.20
2014,02,28,01,31,2.20
2014,02,28,01,32,2.20
2014,02,28,01,33,2.10
2014,02,28,01,34,2.10
2014,02,28,01,35,2.10
2014,02,28,01,36,2.10
2014,02,28,01,37,2.10
2014,02,28,01,38,2.10
2014,02,28,01,39,2.10
2014,02,28,01,40,2.10
2014,02,28,01,41,2.00
2014,02,28,01,42,2.10
2014,02,28,01,43,2.10
2014,02,28,01,44,2.10
2014,02,28,01,45,2.10
2014,02,28,01,46,2.10
2014,02,28,01,47,2.00
2014,02,28,01,48,2.00
2014,02,28,01,49,2.00
2014,02,28,01,50,2.00
2014,02,28,01,51,2.00
2014,02,28,01,52,2.00
2014,02,28,01,53,2.00
2014,02,28,01,54,2.00
2014,02,28,01,55,2.00
2014,02,28,01,56,2.00
2014,02,28,01,57,2.00
2014,02,28,01,58,2.00
2014,02,28,01,59,2.00
2014,02,28,02,00,2.10
2014,02,28,02,01,2.00
2014,02,28,02,02,2.10
2014,02,28,02,03,2.10
2014,02,28,02,04,2.10
2014,02,28,02,05,2.10
2014,02,28,02,06,2.10
2014,02,28,02,07,2.10
2014,02,28,02,08,2.10
2014,02,28,02,09,2.10
2014,02,28,02,10,2.10
2014,02,28,02,11,2.10
2014,02,28,02,12,2.10
2014,02,28,02,13,2.10
2014,02,28,02,14,2.20
2014,02,28,02,15,2.20
2014,02,28,02,16,2.20
2014,02,28,02,17,2.20
2014,02,28,02,18,2.20
2014,02,28,02,19,2.20
2014,02,28,02,20,2.20
2014,02,28,02,21,2.20
2014,02,28,02,22,2.20
2014,02,28,02,23,2.20
2014,02,28,02,24,2.20
2014,02,28,02,25,2.20
2014,02,28,02,26,2.20
2014,02,28,02,27,2.20
2014,02,28,02,28,2.20
2014,02,28,02,29,2.20
2014,02,28,02,30,2.20
2014,02,28,02,31,2.30
2014,02,28,02,32,2.20
2014,02,28,02,33,2.20
2014,02,28,02,34,2.20
2014,02,28,02,35,2.20
2014,02,28,02,36,2.20
2014,02,28,02,37,2.20
2014,02,28,02,38,2.20
2014,02,28,02,39,2.20
2014,02,28,02,40,2.20
2014,02,28,02,41,2.20
2014,02,28,02,42,2.20
2014,02,28,02,43,2.10
2014,02,28,02,44,2.20
2014,02,28,02,45,2.20
2014,02,28,02,46,2.10
2014,02,28,02,47,2.10
2014,02,28,02,48,2.10
2014,02,28,02,49,2.10
2014,02,28,02,50,2.10
2014,02,28,02,51,2.10
2014,02,28,02,52,2.10
2014,02,28,02,53,2.00
2014,02,28,02,54,2.00
2014,02,28,02,55,2.00
2014,02,28,02,56,2.00
2014,02,28,02,57,2.00
2014,02,28,02,58,2.00
2014,02,28,02,59,2.00
2014,02,28,03,00,2.00
2014,02,28,03,01,2.00
2014,02,28,03,02,2.00
2014,02,28,03,03,2.00
2014,02,28,03,04,2.00
2014,02,28,03,05,1.90
2014,02,28,03,06,1.90
2014,02,28,03,07,1.90
2014,02,28,03,08,1.90
2014,02,28,03,09,1.90
2014,02,28,03,10,1.90
2014,02,28,03,11,1.90
2014,02,28,03,12,1.90
2014,02,28,03,13,1.90
2014,02,28,03,14,1.90
2014,02,28,03,15,1.90
2014,02,28,03,16,1.80
2014,02,28,03,17,1.80
2014,02,28,03,18,1.80
2014,02,28,03,19,1.80
2014,02,28,03,20,1.80
2014,02,28,03,21,1.80
2014,02,28,03,22,1.80
2014,02,28,03,23,1.70
2014,02,28,03,24,1.70
2014,02,28,03,25,1.70
2014,02,28,03,26,1.70
2014,02,28,03,27,1.60
2014,02,28,03,28,1.60
2014,02,28,03,29,1.60
2014,02,28,03,30,1.60
2014,02,28,03,31,1.50
2014,02,28,03,32,1.50
2014,02,28,03,33,1.40
2014,02,28,03,34,1.40
2014,02,28,03,35,1.40
2014,02,28,03,36,1.30
2014,02,28,03,37,1.30
2014,02,28,03,38,1.30
2014,02,28,03,39,1.30
2014,02,28,03,40,1.30
2014,02,28,03,41,1.30
2014,02,28,03,42,1.30
2014,02,28,03,43,1.30
2014,02,28,03,44,1.30
2014,02,28,03,45,1.30
2014,02,28,03,46,1.30
2014,02,28,03,47,1.30
2014,02,28,03,48,1.20
2014,02,28,03,49,1.20
2014,02,28,03,50,1.20
2014,02,28,03,51,1.10
2014,02,28,03,52,1.10
2014,02,28,03,53,1.10
2014,02,28,03,54,1.10
2014,02,28,03,55,1.10
2014,02,28,03,56,1.10
2014,02,28,03,57,1.10
2014,02,28,03,58,1.10
2014,02,28,03,59,1.10
2014,02,28,04,00,1.10
2014,02,28,04,01,1.10
2014,02,28,04,02,1.10
2014,02,28,04,03,1.10
2014,02,28,04,04,1.10
2014,02,28,04,05,1.10
2014,02,28,04,06,1.10
2014,02,28,04,07,1.00
2014,02,28,04,08,1.00
2014,02,28,04,09,1.00
2014,02,28,04,10,1.00
2014,02,28,04,11,0.90
2014,02,28,04,12,0.90
2014,02,28,04,13,0.90
2014,02,28,04,14,0.80
2014,02,28,04,15,0.80
2014,02,28,04,16,0.80
2014,02,28,04,17,0.80
2014,02,28,04,18,0.80
2014,02,28,04,19,0.80
2014,02,28,04,20,0.80
2014,02,28,04,21,0.80
2014,02,28,04,22,0.70
2014,02,28,04,23,0.70
2014,02,28,04,24,0.70
2014,02,28,04,25,0.70
2014,02,28,04,26,0.70
2014,02,28,04,27,0.70
2014,02,28,04,28,0.60
2014,02,28,04,29,0.60
2014,02,28,04,30,0.60
2014,02,28,04,31,0.60
2014,02,28,04,32,0.60
2014,02,28,04,33,0.60
2014,02,28,04,34,0.70
2014,02,28,04,35,0.70
2014,02,28,04,36,0.70
2014,02,28,04,37,0.70
2014,02,28,04,38,0.70
2014,02,28,04,39,0.70
2014,02,28,04,40,0.70
2014,02,28,04,41,0.70
2014,02,28,04,42,0.70
2014,02,28,04,43,0.70
2014,02,28,04,44,0.70
2014,02,28,04,45,0.70
2014,02,28,04,46,0.60
2014,02,28,04,47,0.60
2014,02,28,04,48,0.60
2014,02,28,04,49,0.60
2014,02,28,04,50,0.70
2014,02,28,04,51,0.70
2014,02,28,04,52,0.70
2014,02,28,04,53,0.70
2014,02,28,04,54,0.70
2014,02,28,04,55,0.70
2014,02,28,04,56,0.70
2014,02,28,04,57,0.80
2014,02,28,04,58,0.80
2014,02,28,04,59,0.80
2014,02,28,05,00,0.80
2014,02,28,05,01,0.70
2014,02,28,05,02,0.70
2014,02,28,05,03,0.70
2014,02,28,05,04,0.70
2014,02,28,05,05,0.70
2014,02,28,05,06,0.70
2014,02,28,05,07,0.60
2014,02,28,05,08,0.60
2014,02,28,05,09,0.60
2014,02,28,05,10,0.60
2014,02,28,05,11,0.60
2014,02,28,05,12,0.60
2014,02,28,05,13,0.60
2014,02,28,05,14,0.60
2014,02,28,05,15,0.50
2014,02,28,05,16,0.50
2014,02,28,05,17,0.50
2014,02,28,05,18,0.50
2014,02,28,05,19,0.50
2014,02,28,05,20,0.50
2014,02,28,05,21,0.50
2014,02,28,05,22,0.50
2014,02,28,05,23,0.50
2014,02,28,05,24,0.50
2014,02,28,05,25,0.40
2014,02,28,05,26,0.40
2014,02,28,05,27,0.40
2014,02,28,05,28,0.40
2014,02,28,05,29,0.40
2014,02,28,05,30,0.40
2014,02,28,05,31,0.40
2014,02,28,05,32,0.30
2014,02,28,05,33,0.30
2014,02,28,05,34,0.30
2014,02,28,05,35,0.30
2014,02,28,05,36,0.30
2014,02,28,05,37,0.30
2014,02,28,05,38,0.30
2014,02,28,05,39,0.30
2014,02,28,05,40,0.30
2014,02,28,05,41,0.30
2014,02,28,05,42,0.20
2014,02,28,05,43,0.20
2014,02,28,05,44,0.20
2014,02,28,05,45,0.20
2014,02,28,05,46,0.20
2014,02,28,05,47,0.20
2014,02,28,05,48,0.10
2014,02,28,05,49,0.10
2014,02,28,05,50,0.10
2014,02,28,05,51,0.10
2014,02,28,05,52,0.10
2014,02,28,05,53,0.10
2014,02,28,05,54,0.10
2014,02,28,05,55,0.00
2014,02,28,05,56,0.00
2014,02,28,05,57,0.00
2014,02,28,05,58,0.00
2014,02,28,05,59,0.00
2014,02,28,06,00,0.00
2014,02,28,06,01,0.00
2014,02,28,06,02,0.00
2014,02,28,06,03,0.00
2014,02,28,06,04,0.00
2014,02,28,06,05,0.00
2014,02,28,06,06,0.10
2014,02,28,06,07,0.10
2014,02,28,06,08,0.10
2014,02,28,06,09,0.10
2014,02,28,06,10,0.10
2014,02,28,06,11,0.10
2014,02,28,06,12,0.10
2014,02,28,06,13,0.10
2014,02,28,06,14,0.00
2014,02,28,06,15,0.00
2014,02,28,06,16,0.00
2014,02,28,06,17,0.00
2014,02,28,06,18,0.00
2014,02,28,06,19,0.00
2014,02,28,06,20,0.00
2014,02,28,06,21,0.00
2014,02,28,06,22,0.00
2014,02,28,06,23,0.00
2014,02,28,06,24,0.00
2014,02,28,06,25,-0.10
2014,02,28,06,26,-0.10
2014,02,28,06,27,-0.10
2014,02,28,06,28,-0.10
2014,02,28,06,29,-0.10
2014,02,28,06,30,-0.10
2014,02,28,06,31,-0.10
2014,02,28,06,32,-0.10
2014,02,28,06,33,0.00
2014,02,28,06,34,0.00
2014,02,28,06,35,0.00
2014,02,28,06,36,0.00
2014,02,28,06,37,0.00
2014,02,28,06,38,0.10
2014,02,28,06,39,0.10
2014,02,28,06,40,0.10
2014,02,28,06,41,0.10
2014,02,28,06,42,0.20
2014,02,28,06,43,0.20
2014,02,28,06,44,0.20
2014,02,28,06,45,0.20
2014,02,28,06,46,0.20
2014,02,28,06,47,0.20
2014,02,28,06,48,0.20
2014,02,28,06,49,0.30
2014,02,28,06,50,0.30
2014,02,28,06,51,0.30
2014,02,28,06,52,0.40
2014,02,28,06,53,0.40
2014,02,28,06,54,0.40
2014,02,28,06,55,0.40
2014,02,28,06,56,0.40
2014,02,28,06,57,0.40
2014,02,28,06,58,0.40
2014,02,28,06,59,0.40
2014,02,28,07,00,0.50
2014,02,28,07,01,0.50
2014,02,28,07,02,0.50
2014,02,28,07,03,0.50
2014,02,28,07,04,0.50
2014,02,28,07,05,0.50
2014,02,28,07,06,0.50
2014,02,28,07,07,0.50
2014,02,28,07,08,0.50
2014,02,28,07,09,0.50
2014,02,28,07,10,0.50
2014,02,28,07,11,0.50
2014,02,28,07,12,0.50
2014,02,28,07,13,0.40
2014,02,28,07,14,0.40
2014,02,28,07,15,0.40
2014,02,28,07,16,0.40
2014,02,28,07,17,0.40
2014,02,28,07,18,0.40
2014,02,28,07,19,0.40
2014,02,28,07,20,0.40
2014,02,28,07,21,0.40
2014,02,28,07,22,0.40
2014,02,28,07,23,0.40
2014,02,28,07,24,0.40
2014,02,28,07,25,0.40
2014,02,28,07,26,0.30
2014,02,28,07,27,0.30
2014,02,28,07,28,0.30
2014,02,28,07,29,0.30
2014,02,28,07,30,0.30
2014,02,28,07,31,0.30
2014,02,28,07,32,0.30
2014,02,28,07,33,0.30
2014,02,28,07,34,0.30
2014,02,28,07,35,0.30
2014,02,28,07,36,0.30
2014,02,28,07,37,0.30
2014,02,28,07,38,0.30
2014,02,28,07,39,0.30
2014,02,28,07,40,0.30
2014,02,28,07,41,0.30
2014,02,28,07,42,0.30
2014,02,28,07,43,0.30
2014,02,28,07,44,0.30
2014,02,28,07,45,0.30
2014,02,28,07,46,0.30
2014,02,28,07,47,0.30
2014,02,28,07,48,0.30
2014,02,28,07,49,0.30
2014,02,28,07,50,0.30
2014,02,28,07,51,0.30
2014,02,28,07,52,0.30
2014,02,28,07,53,0.30
2014,02,28,07,54,0.30
2014,02,28,07,55,0.30
2014,02,28,07,56,0.30
2014,02,28,07,57,0.30
2014,02,28,07,58,0.30
2014,02,28,07,59,0.30
2014,02,28,08,00,0.30
2014,02,28,08,01,0.30
2014,02,28,08,02,0.40
2014,02,28,08,03,0.40
2014,02,28,08,04,0.40
2014,02,28,08,05,0.40
2014,02,28,08,06,0.40
2014,02,28,08,07,0.50
2014,02,28,08,08,0.50
2014,02,28,08,09,0.50
2014,02,28,08,10,0.60
2014,02,28,08,11,0.60
2014,02,28,08,12,0.60
2014,02,28,08,13,0.60
2014,02,28,08,14,0.60
2014,02,28,08,15,0.60
2014,02,28,08,16,0.70
2014,02,28,08,17,0.70
2014,02,28,08,18,0.70
2014,02,28,08,19,0.70
2014,02,28,08,20,0.70
2014,02,28,08,21,0.80
2014,02,28,08,22,0.80
2014,02,28,08,23,0.90
2014,02,28,08,24,0.90
2014,02,28,08,25,0.90
2014,02,28,08,26,0.90
2014,02,28,08,27,1.00
2014,02,28,08,28,1.00
2014,02,28,08,29,1.10
2014,02,28,08,30,1.10
2014,02,28,08,31,1.20
2014,02,28,08,32,1.20
2014,02,28,08,33,1.20
2014,02,28,08,34,1.30
2014,02,28,08,35,1.30
2014,02,28,08,36,1.30
2014,02,28,08,37,1.30
2014,02,28,08,38,1.30
2014,02,28,08,39,1.30
2014,02,28,08,40,1.30
2014,02,28,08,41,1.50
2014,02,28,08,42,1.60
2014,02,28,08,43,1.70
2014,02,28,08,44,1.70
2014,02,28,08,45,1.80
2014,02,28,08,46,1.90
2014,02,28,08,47,1.90
2014,02,28,08,48,2.00
2014,02,28,08,49,2.00
2014,02,28,08,50,2.00
2014,02,28,08,51,2.00
2014,02,28,08,52,2.00
2014,02,28,08,53,2.00
2014,02,28,08,54,2.00
2014,02,28,08,55,2.00
2014,02,28,08,56,2.00
2014,02,28,08,57,2.10
2014,02,28,08,58,2.10
2014,02,28,08,59,2.10
2014,02,28,09,00,2.20
2014,02,28,09,01,2.20
2014,02,28,09,02,2.30
2014,02,28,09,03,2.30
2014,02,28,09,04,2.40
2014,02,28,09,05,2.50
2014,02,28,09,06,2.60
2014,02,28,09,07,2.60
2014,02,28,09,08,2.70
2014,02,28,09,09,2.80
2014,02,28,09,10,2.80
2014,02,28,09,11,2.90
2014,02,28,09,12,2.90
2014,02,28,09,13,3.00
2014,02,28,09,14,3.00
2014,02,28,09,15,3.10
2014,02,28,09,16,3.10
2014,02,28,09,17,3.00
2014,02,28,09,18,3.00
2014,02,28,09,19,2.90
2014,02,28,09,20,2.90
2014,02,28,09,21,2.90
2014,02,28,09,22,2.90
2014,02,28,09,23,2.90
2014,02,28,09,24,2.90
2014,02,28,09,25,3.00
2014,02,28,09,26,3.00
2014,02,28,09,27,3.10
2014,02,28,09,28,3.10
2014,02,28,09,29,3.20
2014,02,28,09,30,3.30
2014,02,28,09,31,3.30
2014,02,28,09,32,3.40
2014,02,28,09,33,3.40
2014,02,28,09,34,3.50
2014,02,28,09,35,3.60
2014,02,28,09,36,3.60
2014,02,28,09,37,3.70
2014,02,28,09,38,3.80
2014,02,28,09,39,3.80
2014,02,28,09,40,3.90
2014,02,28,09,41,4.00
2014,02,28,09,42,4.10
2014,02,28,09,43,4.10
2014,02,28,09,44,4.20
2014,02,28,09,45,4.20
2014,02,28,09,46,4.20
2014,02,28,09,47,4.30
2014,02,28,09,48,4.30
2014,02,28,09,49,4.40
2014,02,28,09,50,4.40
2014,02,28,09,51,4.50
2014,02,28,09,52,4.50
2014,02,28,09,53,4.60
2014,02,28,09,54,4.60
2014,02,28,09,55,4.70
2014,02,28,09,56,4.70
2014,02,28,09,57,4.80
2014,02,28,09,58,4.80
2014,02,28,09,59,4.90
2014,02,28,10,00,4.90
2014,02,28,10,01,5.00
2014,02,28,10,02,5.10
2014,02,28,10,03,5.10
2014,02,28,10,04,5.20
2014,02,28,10,05,5.20
2014,02,28,10,06,5.30
2014,02,28,10,07,5.40
2014,02,28,10,08,5.40
2014,02,28,10,09,5.50
2014,02,28,10,10,5.60
2014,02,28,10,11,5.70
2014,02,28,10,12,5.80
2014,02,28,10,13,5.80
2014,02,28,10,14,5.80
2014,02,28,10,15,5.80
2014,02,28,10,16,5.90
2014,02,28,10,17,5.90
2014,02,28,10,18,5.90
2014,02,28,10,19,5.90
2014,02,28,10,20,5.90
2014,02,28,10,21,6.00
2014,02,28,10,22,6.00
2014,02,28,10,23,6.10
2014,02,28,10,24,6.10
2014,02,28,10,25,6.10
2014,02,28,10,26,6.10
2014,02,28,10,27,6.20
2014,02,28,10,28,6.20
2014,02,28,10,29,6.20
2014,02,28,10,30,6.20
2014,02,28,10,31,6.20
2014,02,28,10,32,6.20
2014,02,28,10,33,6.30
2014,02,28,10,34,6.30
2014,02,28,10,35,6.40
2014,02,28,10,36,6.50
2014,02,28,10,37,6.50
2014,02,28,10,38,6.60
2014,02,28,10,39,6.70
2014,02,28,10,40,6.70
2014,02,28,10,41,6.80
2014,02,28,10,42,6.80
2014,02,28,10,43,6.90
2014,02,28,10,44,6.90
2014,02,28,10,45,7.00
2014,02,28,10,46,7.00
2014,02,28,10,47,7.00
2014,02,28,10,48,7.10
2014,02,28,10,49,7.10
2014,02,28,10,50,7.10
2014,02,28,10,51,7.20
2014,02,28,10,52,7.20
2014,02,28,10,53,7.20
2014,02,28,10,54,7.30
2014,02,28,10,55,7.30
2014,02,28,10,56,7.40
2014,02,28,10,57,7.40
2014,02,28,10,58,7.40
2014,02,28,10,59,7.40
2014,02,28,11,00,7.40
2014,02,28,11,01,7.40
2014,02,28,11,02,7.40
2014,02,28,11,03,7.30
2014,02,28,11,04,7.20
2014,02,28,11,05,7.20
2014,02,28,11,06,7.20
2014,02,28,11,07,7.20
2014,02,28,11,08,7.20
2014,02,28,11,09,7.20
2014,02,28,11,10,7.20
2014,02,28,11,11,7.20
2014,02,28,11,12,7.20
2014,02,28,11,13,7.20
2014,02,28,11,14,7.30
2014,02,28,11,15,7.30
2014,02,28,11,16,7.30
2014,02,28,11,17,7.40
2014,02,28,11,18,7.40
2014,02,28,11,19,7.50
2014,02,28,11,20,7.60
2014,02,28,11,21,7.60
2014,02,28,11,22,7.60
2014,02,28,11,23,7.70
2014,02,28,11,24,7.70
2014,02,28,11,25,7.70
2014,02,28,11,26,7.70
2014,02,28,11,27,7.70
2014,02,28,11,28,7.80
2014,02,28,11,29,7.80
2014,02,28,11,30,7.80
2014,02,28,11,31,7.90
2014,02,28,11,32,8.00
2014,02,28,11,33,8.00
2014,02,28,11,34,8.10
2014,02,28,11,35,8.20
2014,02,28,11,36,8.20
2014,02,28,11,37,8.30
2014,02,28,11,38,8.40
2014,02,28,11,39,8.50
2014,02,28,11,40,8.50
2014,02,28,11,41,8.60
2014,02,28,11,42,8.60
2014,02,28,11,43,8.60
2014,02,28,11,44,8.70
2014,02,28,11,45,8.70
2014,02,28,11,46,8.70
2014,02,28,11,47,8.80
2014,02,28,11,48,8.90
2014,02,28,11,49,8.90
2014,02,28,11,50,9.00
2014,02,28,11,51,9.10
2014,02,28,11,52,9.10
2014,02,28,11,53,9.20
2014,02,28,11,54,9.20
2014,02,28,11,55,9.20
2014,02,28,11,56,9.20
2014,02,28,11,57,9.30
2014,02,28,11,58,9.30
2014,02,28,11,59,9.30
2014,02,28,12,00,9.20
2014,02,28,12,01,9.20
2014,02,28,12,02,9.10
2014,02,28,12,03,9.10
2014,02,28,12,04,9.20
2014,02,28,12,05,9.20
2014,02,28,12,06,9.30
2014,02,28,12,07,9.30
2014,02,28,12,08,9.40
2014,02,28,12,09,9.40
2014,02,28,12,10,9.40
2014,02,28,12,11,9.50
2014,02,28,12,12,9.50
2014,02,28,12,13,9.60
2014,02,28,12,14,9.60
2014,02,28,12,15,9.70
2014,02,28,12,16,9.70
2014,02,28,12,17,9.70
2014,02,28,12,18,9.70
2014,02,28,12,19,9.70
2014,02,28,12,20,9.70
2014,02,28,12,21,9.60
2014,02,28,12,22,9.60
2014,02,28,12,23,9.60
2014,02,28,12,24,9.70
2014,02,28,12,25,9.70
2014,02,28,12,26,9.70
2014,02,28,12,27,9.60
2014,02,28,12,28,9.50
2014,02,28,12,29,9.40
2014,02,28,12,30,9.40
2014,02,28,12,31,9.40
2014,02,28,12,32,9.30
2014,02,28,12,33,9.30
2014,02,28,12,34,9.40
2014,02,28,12,35,9.50
2014,02,28,12,36,9.60
2014,02,28,12,37,9.60
2014,02,28,12,38,9.70
2014,02,28,12,39,9.80
2014,02,28,12,40,9.80
2014,02,28,12,41,9.90
2014,02,28,12,42,9.90
2014,02,28,12,43,9.80
2014,02,28,12,44,9.80
2014,02,28,12,45,9.70
2014,02,28,12,46,9.70
2014,02,28,12,47,9.60
2014,02,28,12,48,9.60
2014,02,28,12,49,9.60
2014,02,28,12,50,9.60
2014,02,28,12,51,9.70
2014,02,28,12,52,9.70
2014,02,28,12,53,9.70
2014,02,28,12,54,9.70
2014,02,28,12,55,9.70
2014,02,28,12,56,9.70
2014,02,28,12,57,9.70
2014,02,28,12,58,9.70
2014,02,28,12,59,9.70
2014,02,28,13,00,9.70
2014,02,28,13,01,9.80
2014,02,28,13,02,9.80
2014,02,28,13,03,9.80
2014,02,28,13,04,9.80
2014,02,28,13,05,9.90
2014,02,28,13,06,9.90
2014,02,28,13,07,9.90
2014,02,28,13,08,9.90
2014,02,28,13,09,9.90
2014,02,28,13,10,9.90
2014,02,28,13,11,9.90
2014,02,28,13,12,9.90
2014,02,28,13,13,9.90
2014,02,28,13,14,9.80
2014,02,28,13,15,9.80
2014,02,28,13,16,9.70
2014,02,28,13,17,9.70
2014,02,28,13,18,9.60
2014,02,28,13,19,9.60
2014,02,28,13,20,9.50
2014,02,28,13,21,9.50
2014,02,28,13,22,9.50
2014,02,28,13,23,9.50
2014,02,28,13,24,9.50
2014,02,28,13,25,9.60
2014,02,28,13,26,9.60
2014,02,28,13,27,9.60
2014,02,28,13,28,9.60
2014,02,28,13,29,9.60
2014,02,28,13,30,9.60
2014,02,28,13,31,9.60
2014,02,28,13,32,9.60
2014,02,28,13,33,9.60
2014,02,28,13,34,9.60
2014,02,28,13,35,9.60
2014,02,28,13,36,9.60
2014,02,28,13,37,9.60
2014,02,28,13,38,9.60
2014,02,28,13,39,9.70
2014,02,28,13,40,9.70
2014,02,28,13,41,9.80
2014,02,28,13,42,9.90
2014,02,28,13,43,10.00
2014,02,28,13,44,10.00
2014,02,28,13,45,10.10
2014,02,28,13,46,10.20
2014,02,28,13,47,10.30
2014,02,28,13,48,10.30
2014,02,28,13,49,10.30
2014,02,28,13,50,10.40
2014,02,28,13,51,10.40
2014,02,28,13,52,10.40
2014,02,28,13,53,10.40
2014,02,28,13,54,10.30
2014,02,28,13,55,10.30
2014,02,28,13,56,10.30
2014,02,28,13,57,10.30
2014,02,28,13,58,10.30
2014,02,28,13,59,10.40
2014,02,28,14,00,10.40
2014,02,28,14,01,10.40
2014,02,28,14,02,10.40
2014,02,28,14,03,10.40
2014,02,28,14,04,10.40
2014,02,28,14,05,10.40
2014,02,28,14,06,10.40
2014,02,28,14,07,10.40
2014,02,28,14,08,10.30
2014,02,28,14,09,10.30
2014,02,28,14,10,10.30
2014,02,28,14,11,10.30
2014,02,28,14,12,10.30
2014,02,28,14,13,10.30
2014,02,28,14,14,10.30
2014,02,28,14,15,10.30
2014,02,28,14,16,10.30
2014,02,28,14,17,10.30
2014,02,28,14,18,10.30
2014,02,28,14,19,10.30
2014,02,28,14,20,10.20
2014,02,28,14,21,10.20
2014,02,28,14,22,10.20
2014,02,28,14,23,10.30
2014,02,28,14,24,10.30
2014,02,28,14,25,10.40
2014,02,28,14,26,10.40
2014,02,28,14,27,10.50
2014,02,28,14,28,10.50
2014,02,28,14,29,10.60
2014,02,28,14,30,10.70
2014,02,28,14,31,10.80
2014,02,28,14,32,10.80
2014,02,28,14,33,10.80
2014,02,28,14,34,10.80
2014,02,28,14,35,10.90
2014,02,28,14,36,10.90
2014,02,28,14,37,10.90
2014,02,28,14,38,10.90
2014,02,28,14,39,10.90
2014,02,28,14,40,10.80
2014,02,28,14,41,10.70
2014,02,28,14,42,10.60
2014,02,28,14,43,10.60
2014,02,28,14,44,10.60
2014,02,28,14,45,10.60
2014,02,28,14,46,10.60
2014,02,28,14,47,10.50
2014,02,28,14,48,10.40
2014,02,28,14,49,10.30
2014,02,28,14,50,10.30
2014,02,28,14,51,10.20
2014,02,28,14,52,10.20
2014,02,28,14,53,10.20
2014,02,28,14,54,10.20
2014,02,28,14,55,10.20
2014,02,28,14,56,10.10
2014,02,28,14,57,10.10
2014,02,28,14,58,10.10
2014,02,28,14,59,10.10
2014,02,28,15,00,10.10
2014,02,28,15,01,10.10
2014,02,28,15,02,10.20
2014,02,28,15,03,10.20
2014,02,28,15,04,10.20
2014,02,28,15,05,10.30
2014,02,28,15,06,10.30
2014,02,28,15,07,10.30
2014,02,28,15,08,10.20
2014,02,28,15,09,10.20
2014,02,28,15,10,10.30
2014,02,28,15,11,10.30
2014,02,28,15,12,10.30
2014,02,28,15,13,10.40
2014,02,28,15,14,10.40
2014,02,28,15,15,10.40
2014,02,28,15,16,10.40
2014,02,28,15,17,10.40
2014,02,28,15,18,10.40
2014,02,28,15,19,10.40
2014,02,28,15,20,10.40
2014,02,28,15,21,10.40
2014,02,28,15,22,10.40
2014,02,28,15,23,10.40
2014,02,28,15,24,10.50
2014,02,28,15,25,10.50
2014,02,28,15,26,10.50
2014,02,28,15,27,10.50
2014,02,28,15,28,10.60
2014,02,28,15,29,10.60
2014,02,28,15,30,10.60
2014,02,28,15,31,10.60
2014,02,28,15,32,10.60
2014,02,28,15,33,10.60
2014,02,28,15,34,10.60
2014,02,28,15,35,10.70
2014,02,28,15,36,10.70
2014,02,28,15,37,10.70
2014,02,28,15,38,10.80
2014,02,28,15,39,10.80
2014,02,28,15,40,10.80
2014,02,28,15,41,10.80
2014,02,28,15,42,10.80
2014,02,28,15,43,10.80
2014,02,28,15,44,10.80
2014,02,28,15,45,10.80
2014,02,28,15,46,10.80
2014,02,28,15,47,10.80
2014,02,28,15,48,10.70
2014,02,28,15,49,10.70
2014,02,28,15,50,10.70
2014,02,28,15,51,10.70
2014,02,28,15,52,10.70
2014,02,28,15,53,10.70
2014,02,28,15,54,10.70
2014,02,28,15,55,10.70
2014,02,28,15,56,10.80
2014,02,28,15,57,10.80
2014,02,28,15,58,10.80
2014,02,28,15,59,10.80
2014,02,28,16,00,10.80
2014,02,28,16,01,10.80
2014,02,28,16,02,10.80
2014,02,28,16,03,10.80
2014,02,28,16,04,10.80
2014,02,28,16,05,10.80
2014,02,28,16,06,10.70
2014,02,28,16,07,10.70
2014,02,28,16,08,10.70
2014,02,28,16,09,10.70
2014,02,28,16,10,10.70
2014,02,28,16,11,10.70
2014,02,28,16,12,10.80
2014,02,28,16,13,10.80
2014,02,28,16,14,10.80
2014,02,28,16,15,10.80
2014,02,28,16,16,10.80
2014,02,28,16,17,10.90
2014,02,28,16,18,10.90
2014,02,28,16,19,10.90
2014,02,28,16,20,10.90
2014,02,28,16,21,10.90
2014,02,28,16,22,10.80
2014,02,28,16,23,10.80
2014,02,28,16,24,10.80
2014,02,28,16,25,10.80
2014,02,28,16,26,10.80
2014,02,28,16,27,10.80
2014,02,28,16,28,10.80
2014,02,28,16,29,10.80
2014,02,28,16,30,10.80
2014,02,28,16,31,10.80
2014,02,28,16,32,10.90
2014,02,28,16,33,10.90
2014,02,28,16,34,10.90
2014,02,28,16,35,10.90
2014,02,28,16,36,10.90
2014,02,28,16,37,11.00
2014,02,28,16,38,10.90
2014,02,28,16,39,10.90
2014,02,28,16,40,10.90
2014,02,28,16,41,10.80
2014,02,28,16,42,10.80
2014,02,28,16,43,10.70
2014,02,28,16,44,10.70
2014,02,28,16,45,10.70
2014,02,28,16,46,10.60
2014,02,28,16,47,10.60
2014,02,28,16,48,10.60
2014,02,28,16,49,10.60
2014,02,28,16,50,10.60
2014,02,28,16,51,10.50
2014,02,28,16,52,10.50
2014,02,28,16,53,10.50
2014,02,28,16,54,10.50
2014,02,28,16,55,10.50
2014,02,28,16,56,10.50
2014,02,28,16,57,10.50
2014,02,28,16,58,10.50
2014,02,28,16,59,10.40
2014,02,28,17,00,10.40
2014,02,28,17,01,10.40
2014,02,28,17,02,10.50
2014,02,28,17,03,10.50
2014,02,28,17,04,10.40
2014,02,28,17,05,10.40
2014,02,28,17,06,10.40
2014,02,28,17,07,10.40
2014,02,28,17,08,10.40
2014,02,28,17,09,10.40
2014,02,28,17,10,10.40
2014,02,28,17,11,10.40
2014,02,28,17,12,10.40
2014,02,28,17,13,10.40
2014,02,28,17,14,10.40
2014,02,28,17,15,10.40
2014,02,28,17,16,10.40
2014,02,28,17,17,10.40
2014,02,28,17,18,10.40
2014,02,28,17,19,10.40
2014,02,28,17,20,10.40
2014,02,28,17,21,10.30
2014,02,28,17,22,10.30
2014,02,28,17,23,10.20
2014,02,28,17,24,10.20
2014,02,28,17,25,10.10
2014,02,28,17,26,10.10
2014,02,28,17,27,10.10
2014,02,28,17,28,10.10
2014,02,28,17,29,10.10
2014,02,28,17,30,10.00
2014,02,28,17,31,10.00
2014,02,28,17,32,10.00
2014,02,28,17,33,10.00
2014,02,28,17,34,9.90
2014,02,28,17,35,9.90
2014,02,28,17,36,9.80
2014,02,28,17,37,9.80
2014,02,28,17,38,9.80
2014,02,28,17,39,9.70
2014,02,28,17,40,9.60
2014,02,28,17,41,9.60
2014,02,28,17,42,9.50
2014,02,28,17,43,9.40
2014,02,28,17,44,9.40
2014,02,28,17,45,9.30
2014,02,28,17,46,9.20
2014,02,28,17,47,9.10
2014,02,28,17,48,9.10
2014,02,28,17,49,9.00
2014,02,28,17,50,8.90
2014,02,28,17,51,8.80
2014,02,28,17,52,8.70
2014,02,28,17,53,8.70
2014,02,28,17,54,8.60
2014,02,28,17,55,8.50